ROMMA est une association bénévole à but non lucratif. Votre soutien est indispensable : ADHERER à ROMMA ou FAIRE un DON

Tourrette-Levens - (06, Alpes-Maritimes)

Côte-d'Azur (416 m)   Longitude: 07° 16' 12" E   Latitude: 43° 47' 24" N Station partenaire n°152
 

Détail journalier du     <<     >>

Température Precipitation Humidité Pression Vent Dir Rafale Dir. rafale Ensol.
Heure (°C) (mm) (%) (hPa) (km/h) (km/h) (min)
01:00 13.909110092ONO11O0
02:00 13.3091100906SSE0
03:00 12.408910101ONO6ONO0
04:00 11.6092101003SSO0
05:00 11.208610101SSO6SO0
06:00 10.308410102S6SSO0
07:00 12.707410113S10SSE0
08:00 14.206810113SSE13ENE0
09:00 17.305410124ESE18N38
10:00 20.403710125ENE19ONO60
11:00 20.604210125ESE18SE60
12:00 20.705110135SE21SSE50
13:00 20.905410137SSE23SSE60
14:00 21.305110146SE19ESE22
15:00 19.804910147SSE19ESE42
16:00 19.605510157ESE19ESE51
17:00 18.605310156ESE21SSE53
18:00 17.505910165E18ENE18
19:00 15.706610162ESE11ESE0
20:00 14.506810172OSO10SSO0
21:00 13.207210182ONO6N0
22:00 12.807310191NNO6O0
23:00 13.2067101905NNO0
minuit 12.60691020000

Graphique du 29-05-2019

 

Serveur OMMA